星链-6089 (STARLINK-6089 )

导读 | 豆包AI

STARLINK-6089是由美国于2023年3月29日发射的星链卫星,隶属于SpaceX公司的星链互联网星座项目。星链计划旨在通过构建低轨卫星星座,为全球提供高速低延迟的宽带互联网服务,该卫星入轨后将助力完善星链星座的全球覆盖能力。

基本信息
目录编号:
56096
目录名称:
STARLINK-6089
国际标识:
2023-046D
轨道中心:
EARTH
卫星名称:
星链-6089
卫星全名:
星链-6089 (STARLINK-6089 )
卫星状态:
在轨 (已飞行1128 天)
发射日期:
2023-03-29 UTC
国别 :
美国 (US)
星等 :
--
轨道信息
数据来源 国际轨道数据
星历时间: 2026-04-30T08:31:08+0800
7小时前
查看轨道信息
半长轴: 6861.19km
偏心率: 0.0001553
轨道倾角: 43.002°
近地点辐角 270.853°
升交点赤经 231.528°
平近点角 89.215°
近地点: 481.987km
远地点: 484.119km
周期: 94.267分钟
每日圈数: 15.275788
详细信息
固有亮度:
5
最大亮度:
2.5
卫星平台:
Starlink v1.5
覆盖范围:
全球
运营商:
太空探索技术公司
运营商所在国:
美国
制造商(研发单位):
太空探索技术公司
制造商所在国:
美国
使用方式:
暂无
卫星简介
星链(Starlink)计划是由太空探索技术公司(SpaceX)提出的一个巨型低轨卫星互联网星座项目,计划在2019年至2024年间在太空搭建由约1.2万颗卫星组成的“星链”网络,其中1584颗将部署在地球上空550千米处的近地轨道,并从2020年开始工作。该卫星仍在工作。
2D轨道图
3D轨道图
轨道高度分析图
轨道倾角分析图
轨道综合分析图
查看轨道综合分析图